Location: Korczew
(51.3586°N, 19.4491°E)
Time: 08:24:26
(UTC+00:00)

Okean 3 Rocket - Pass Details

Date: 19 May 2025
Orbit: 610 x 638 km, 82.5° (Epoch: 17 June)

Event Time Altitude Azimuth Distance (km) Brightness Sun altitude
Rises 21:50:57 0° 346° (NNW) 2,900 8.8 -17.9°
Reaches altitude 10° 21:53:12 10° 342° (NNW) 1,993 7.4 -18.0°
Maximum altitude 21:57:31 57° 265° (W) 733 3.9 -18.1°
Enters shadow 21:59:13 34° 202° (SSW) 1,034 4.2 -18.1°
